Flag for United Kingdom Weather past 2 weeks in Cheltenham, England, United Kingdom

Now
64 °F

Passing clouds.


Feels Like: 64 °F
Forecast: 56 / 72 °F
Wind: 2 mph from Northwest

Location: Staverton Private

Current Time: Jul 3, 2015 at 9:30:48 AM

Latest Report: Jul 3, 2015 at 8:50 AM


Visibility: N/A

Pressure: 30.30 "Hg

Humidity: 83%

Dew point: 59 °F

Location of CheltenhamLocation

Historic Weather in Cheltenham — Graph

°F

Cheltenham temperature yesterday

Maximum temperature yesterday: 70 °F (at 2:20 PM)
Minimum temperature yesterday: 59 °F (at 3:50 PM)
Average temperature yesterday: 65 °F

Past Weeks' High & Low Weather Summary

 TemperatureHumidityPressure
High91 °F (Jul 1, 5:50 PM)94% (Jun 20, 3:50 PM)30.30 "Hg (Jun 20, 3:50 PM)
Low54 °F (Jun 23, 6:50 AM)32% (Jun 30, 12:50 PM)29.80 "Hg (Jul 1, 6:50 AM)
Average68 °F63%30.06 "Hg
* Reported Jun 18 8:20 AM — Jul 3 8:20 AM, Cheltenham, Weather by CustomWeather, © 2015

Note: Actual official high and low records may vary slightly from our data, if they occured in-between our weather recording intervals... More about our weather records

Advertising

Cheltenham weather history for previous 24 hours

 ConditionsComfort  
Time TempWeatherWind HumidityBarometerVisibility
8:20 AM
Fri, Jul 3
61 °FPassing clouds.No wind88%30.30 "HgN/A
7:50 AM59 °FSunny.No wind88%30.30 "Hg10 mi
7:20 PM
Thu, Jul 2
64 °FPassing clouds.No wind78%30.18 "HgN/A
6:50 PM64 °FPassing clouds.No wind78%30.15 "HgN/A
6:20 PM63 °FPassing clouds.3 mph83%30.15 "HgN/A
5:50 PM63 °FPassing clouds.2 mph77%30.15 "HgN/A
5:20 PM59 °FScattered clouds.5 mph94%30.12 "HgN/A
4:50 PM59 °FSleet. Partly sunny.No wind94%30.15 "HgN/A
4:20 PM59 °FSprinkles. Broken clouds.8 mph94%30.15 "Hg3 mi
3:50 PM59 °FRain showers. Overcast.13 mph94%30.12 "Hg2 mi
3:20 PM66 °FSprinkles. Overcast.9 mph88%30.07 "Hg4 mi
2:50 PM70 °FScattered showers. Partly sunny.No wind73%30.07 "HgN/A
2:20 PM70 °FScattered showers. Partly sunny.No wind73%30.04 "HgN/A
1:50 PM68 °FScattered clouds.No wind78%30.07 "HgN/A
1:20 PM68 °FScattered clouds.2 mph83%30.07 "HgN/A
12:50 PM66 °FSprinkles. Passing clouds.3 mph88%30.07 "HgN/A
12:20 PM66 °FSprinkles. Scattered clouds.7 mph88%30.09 "HgN/A
11:50 AM66 °FPassing clouds.3 mph88%30.07 "HgN/A
11:20 AM64 °FPassing clouds.No wind88%30.07 "HgN/A
10:50 AM64 °FPassing clouds.No wind88%30.07 "HgN/A
10:20 AM64 °FPassing clouds.3 mph94%30.07 "HgN/A
9:50 AM66 °FSprinkles. Scattered clouds.5 mph83%30.04 "HgN/A
9:20 AM66 °FScattered clouds.6 mph83%30.07 "HgN/A
Weather by CustomWeather, © 2015

See weather overviewHow to use our weather pages